User: anonymous   Login
Location: Wellington
(41.3000°S, 174.7830°E)
Time: 06:39:18
(UTC+13:00)
Language:

Cosmos 1486 Rocket - Orbit

View from above orbital plane
View from above orbital plane
View from above satellite
View from above satellite

Ground track
Ground track

The orbit data is extracted from the following two-line orbital elements,

1 14241U 83079B   19078.69497190  .00000018  00000-0  15171-4 0  9997
2 14241  74.0600 150.8217 0016171  63.6213 296.6598 14.36163202864755
Epoch (UTC): 19 March 2019 16:40:45
Eccentricity: 0.0016171
inclination: 74.0600°
perigee height: 759 km
apogee height: 783 km
right ascension of ascending node: 150.8217°
argument of perigee: 63.6213°
revolutions per day: 14.36163202
mean anomaly at epoch: 296.6598°
orbit number at epoch: 86475

The dashed part of the orbit path shows where the satellite is in the earth's shadow,  

DLR